Total_Precipitation_Accumulation
0.02 0.06 0.13 0.20 0.19 0.14 0.10 0.07 0.08 0.09 0.17 0.29 0.46 0.58 0.62 0.60 0.61 0.58 0.51 0.52 0.57 0.66 0.72 0.78 0.84 0.83 0.82 0.91 0.91 0.95 1.14 1.25 1.30 1.28 1.34 1.47 1.57 1.56 1.60 1.62 1.60 1.74 1.79 1.74
0.04 0.06 0.08 0.12 0.16 0.12 0.09 0.08 0.07 0.10 0.19 0.32 0.52 0.57 0.64 0.61 0.57 0.56 0.62 0.63 0.70 0.76 0.81 0.82 0.85 0.93 0.98 0.98 1.01 1.16 1.53 1.69 1.69 1.71 1.74 1.74 1.77 1.76 1.82 1.87 2.03 2.06 1.96 1.89
0.06 0.08 0.10 0.15 0.14 0.12 0.11 0.10 0.11 0.16 0.27 0.36 0.48 0.64 0.73 0.66 0.54 0.52 0.53 0.59 0.66 0.81 0.91 0.89 0.87 0.92 1.02 1.11 1.18 1.31 1.56 1.70 1.75 1.78 1.82 1.93 1.96 1.98 2.00 2.08 2.15 2.19 2.24 2.17
0.11 0.12 0.19 0.17 0.16 0.16 0.15 0.17 0.20 0.32 0.43 0.47 0.49 0.57 0.61 0.52 0.51 0.54 0.56 0.66 0.77 0.80 0.92 1.00 1.04 1.11 1.25 1.43 1.59 1.63 1.72 1.88 1.95 1.91 1.94 1.99 1.99 1.94 1.95 2.05 2.08 2.06 2.02 1.94
0.22 0.22 0.20 0.20 0.24 0.25 0.26 0.33 0.39 0.52 0.65 0.71 0.69 0.66 0.75 0.68 0.63 0.64 0.73 0.82 0.98 1.11 1.11 1.16 1.29 1.40 1.48 1.67 1.82 1.84 1.86 2.03 2.13 2.19 2.26 2.19 2.10 2.10 2.10 2.10 1.97 1.87 1.78 1.74
0.34 0.37 0.38 0.32 0.36 0.35 0.39 0.67 0.66 0.73 0.83 0.89 0.89 1.10 1.14 0.89 0.85 0.77 0.76 0.84 0.95 1.16 1.30 1.31 1.45 1.55 1.61 1.69 1.74 1.81 1.81 1.90 2.05 2.14 2.32 2.42 2.35 2.35 2.28 2.18 2.06 1.98 1.89 1.86
0.44 0.48 0.47 0.42 0.39 0.41 0.79 1.10 0.98 0.95 0.97 1.05 1.17 1.16 1.08 0.93 0.93 0.98 0.90 0.86 0.89 0.97 1.14 1.25 1.32 1.40 1.53 1.60 1.59 1.69 1.70 1.67 1.81 2.01 2.20 2.33 2.45 2.47 2.47 2.36 2.20 2.00 1.84 1.81
0.58 0.76 0.86 0.59 0.49 0.73 1.04 1.04 1.18 1.12 1.11 1.20 1.24 1.24 1.21 1.16 1.11 1.04 0.98 0.91 0.93 0.99 1.07 1.15 1.28 1.47 1.62 1.66 1.66 1.68 1.72 1.81 1.92 2.07 2.15 2.14 2.20 2.27 2.38 2.34 2.26 2.13 1.89 1.68
0.91 1.06 0.98 0.70 0.73 0.82 0.86 1.04 1.13 1.15 1.17 1.21 1.23 1.20 1.11 1.01 1.00 1.08 1.01 0.99 0.94 1.00 1.12 1.28 1.45 1.66 1.86 1.87 1.88 1.88 1.90 1.96 2.03 2.11 2.17 2.21 2.19 2.18 2.16 2.09 1.95 1.87 1.76 1.66
1.22 1.36 1.14 0.95 0.90 0.92 1.00 1.12 1.21 1.30 1.37 1.28 1.15 1.07 1.06 1.02 0.99 1.07 1.08 1.03 1.00 0.99 1.07 1.26 1.39 1.49 1.69 1.80 1.83 1.95 1.90 1.84 1.79 1.80 1.84 1.88 1.91 1.92 1.93 1.89 1.84 1.76 1.68 1.66
1.56 1.79 1.64 1.41 1.19 1.11 1.18 1.36 1.50 1.52 1.44 1.33 1.27 1.24 1.28 1.23 1.11 1.04 1.04 1.07 1.07 1.09 1.12 1.18 1.24 1.29 1.39 1.52 1.63 1.81 1.91 1.88 1.88 1.85 1.80 1.80 1.85 1.91 1.80 1.76 1.76 1.66 1.56 1.63
1.82 1.82 1.89 1.77 1.42 1.30 1.34 1.45 1.51 1.46 1.50 1.50 1.46 1.41 1.28 1.21 1.13 1.05 1.00 1.04 1.10 1.17 1.21 1.20 1.21 1.29 1.40 1.53 1.69 1.89 1.91 1.83 1.83 1.87 1.89 1.88 1.87 1.92 1.96 1.77 1.72 1.61 1.54 1.51
1.52 1.62 1.72 1.65 1.52 1.48 1.50 1.53 1.60 1.56 1.48 1.48 1.44 1.38 1.28 1.21 1.17 1.11 1.11 1.13 1.21 1.27 1.23 1.17 1.17 1.27 1.40 1.55 1.72 1.87 1.89 1.88 1.90 1.90 1.94 1.91 1.79 1.73 1.77 1.69 1.52 1.42 1.38 1.29
1.54 1.62 1.81 1.82 1.74 1.64 1.71 1.76 1.80 1.74 1.62 1.51 1.41 1.35 1.33 1.38 1.37 1.29 1.25 1.28 1.28 1.23 1.14 1.12 1.14 1.16 1.23 1.36 1.57 1.76 1.79 1.85 1.91 1.92 1.91 1.86 1.76 1.68 1.62 1.60 1.49 1.34 1.24 1.16
1.53 1.52 1.67 1.66 1.69 1.68 1.79 1.83 1.80 1.78 1.71 1.59 1.44 1.35 1.27 1.30 1.49 1.52 1.49 1.47 1.37 1.26 1.17 1.10 1.06 1.01 1.02 1.11 1.23 1.41 1.50 1.48 1.49 1.54 1.56 1.52 1.44 1.38 1.32 1.28 1.27 1.28 1.16 1.00
1.34 1.49 1.54 1.59 1.58 1.51 1.56 1.60 1.66 1.65 1.56 1.47 1.37 1.32 1.23 1.20 1.27 1.36 1.45 1.45 1.44 1.36 1.23 1.13 1.13 1.08 1.01 1.08 1.15 1.19 1.23 1.29 1.21 1.14 1.15 1.17 1.14 1.10 1.06 1.08 1.12 1.20 1.15 0.96
1.38 1.55 1.55 1.54 1.53 1.49 1.41 1.45 1.52 1.53 1.46 1.40 1.30 1.19 1.09 1.11 1.22 1.30 1.31 1.24 1.17 1.14 1.09 1.03 1.02 1.03 1.01 1.08 1.10 1.06 1.00 0.95 0.95 0.85 0.85 0.95 1.00 0.97 0.94 0.99 1.06 1.13 1.06 0.90
1.23 1.33 1.35 1.33 1.27 1.33 1.33 1.37 1.41 1.32 1.34 1.30 1.17 1.07 1.03 1.14 1.29 1.31 1.19 1.07 1.03 1.02 0.98 0.89 0.80 0.75 0.78 0.82 0.82 0.77 0.71 0.70 0.66 0.63 0.69 0.75 0.78 0.85 0.93 0.99 1.04 1.07 0.98 0.85
1.10 1.08 1.06 1.04 0.96 1.03 1.12 1.16 1.23 1.22 1.21 1.13 1.04 1.06 1.09 1.16 1.22 1.19 1.03 0.96 0.95 0.91 0.81 0.71 0.72 0.62 0.60 0.58 0.62 0.61 0.61 0.64 0.64 0.63 0.69 0.69 0.71 0.78 0.94 1.03 1.04 1.03 0.98 0.93
0.95 0.87 0.82 0.82 0.79 0.83 0.93 0.97 0.94 0.98 0.99 0.97 1.04 1.09 1.07 1.08 1.04 1.03 0.96 0.94 0.87 0.74 0.65 0.60 0.58 0.60 0.60 0.56 0.56 0.54 0.57 0.62 0.66 0.65 0.63 0.66 0.71 0.74 0.78 0.82 0.88 0.92 0.93 0.90
0.83 0.76 0.74 0.78 0.78 0.74 0.78 0.78 0.74 0.76 0.82 0.86 0.95 0.99 0.98 0.97 0.93 0.95 1.04 1.02 0.86 0.69 0.62 0.64 0.56 0.54 0.54 0.57 0.55 0.53 0.58 0.63 0.68 0.74 0.72 0.71 0.72 0.73 0.74 0.74 0.76 0.79 0.84 0.90
0.91 0.80 0.75 0.75 0.79 0.79 0.75 0.72 0.67 0.65 0.70 0.76 0.76 0.80 0.90 0.96 0.92 0.93 0.98 1.02 0.92 0.91 0.71 0.59 0.53 0.52 0.55 0.56 0.57 0.63 0.64 0.67 0.72 0.78 0.79 0.77 0.79 0.83 0.85 0.84 0.85 0.82 0.85 0.90
0.98 0.91 0.87 0.87 0.89 0.89 0.78 0.72 0.68 0.69 0.70 0.72 0.72 0.79 0.88 0.96 0.96 0.96 0.95 0.88 0.83 0.91 0.82 0.71 0.69 0.65 0.63 0.59 0.68 0.78 0.76 0.74 0.74 0.76 0.79 0.80 0.83 0.85 0.88 0.88 0.94 0.93 0.92 0.95
1.07 0.97 0.93 0.88 0.82 0.84 0.83 0.77 0.72 0.71 0.70 0.71 0.71 0.76 0.88 0.96 0.95 0.88 0.88 0.87 0.81 0.80 0.77 0.83 0.84 0.81 0.77 0.68 0.74 0.78 0.80 0.83 0.84 0.80 0.76 0.76 0.78 0.80 0.88 0.91 0.93 0.94 0.94 0.95
1.16 1.05 0.95 0.85 0.80 0.79 0.80 0.80 0.75 0.68 0.66 0.71 0.69 0.71 0.78 0.88 0.95 0.91 0.84 0.77 0.73 0.70 0.73 0.78 0.81 0.88 0.84 0.82 0.81 0.80 0.81 0.89 0.94 0.90 0.85 0.84 0.87 0.89 0.91 0.90 0.86 0.85 0.86 0.90
1.21 1.12 1.01 0.90 0.80 0.76 0.79 0.83 0.83 0.81 0.76 0.75 0.72 0.74 0.78 0.79 0.81 0.85 0.89 0.84 0.76 0.73 0.76 0.78 0.77 0.82 0.82 0.87 0.92 0.92 0.91 0.95 0.95 0.92 0.92 0.95 0.99 0.99 0.89 0.80 0.74 0.74 0.73 0.74
1.10 1.05 0.98 0.89 0.80 0.75 0.75 0.79 0.82 0.82 0.81 0.82 0.79 0.82 0.90 0.90 0.88 0.86 0.82 0.78 0.72 0.71 0.74 0.73 0.71 0.71 0.68 0.67 0.71 0.73 0.77 0.80 0.85 0.90 0.94 0.97 0.95 0.91 0.84 0.77 0.71 0.68 0.67 0.66